Time,TemperatureF,DewpointF,PressureIn,WindDirection,WindDirectionDegrees,WindSpeedMPH,WindSpeedGustMPH,Humidity,HourlyPrecipIn,Conditions,Clouds,dailyrainin,SoftwareType,DateUTC
2013-03-23 00:02:00,52.0,30.0,30.04,North,353,1.0,5.0,42,0.00,,,0.00,,2013-03-23 07:02:00,
2013-03-23 00:11:00,52.0,30.0,30.04,North,353,1.0,5.0,42,0.00,,,0.00,,2013-03-23 07:11:00,
2013-03-23 00:22:00,51.0,28.0,30.03,NW,326,2.0,7.0,41,0.00,,,0.00,,2013-03-23 07:22:00,
2013-03-23 00:32:00,52.0,28.0,30.04,North,349,3.0,9.0,39,0.00,,,0.00,,2013-03-23 07:32:00,
2013-03-23 00:41:00,52.0,28.0,30.04,North,349,3.0,9.0,39,0.00,,,0.00,,2013-03-23 07:41:00,
2013-03-23 00:52:00,52.0,28.0,30.04,NNE,22,3.0,8.0,40,0.00,,,0.00,,2013-03-23 07:52:00,
2013-03-23 01:02:00,51.0,29.0,30.05,NE,36,5.0,12.0,43,0.00,,,0.00,,2013-03-23 08:02:00,
2013-03-23 01:12:00,51.0,29.0,30.05,NE,36,5.0,12.0,43,0.00,,,0.00,,2013-03-23 08:12:00,
2013-03-23 01:22:00,49.0,30.0,30.05,WNW,300,3.0,8.0,47,0.00,,,0.00,,2013-03-23 08:22:00,
2013-03-23 01:32:00,49.0,31.0,30.05,NW,312,4.0,11.0,49,0.00,,,0.00,,2013-03-23 08:32:00,
2013-03-23 01:41:00,49.0,31.0,30.05,NW,312,4.0,11.0,49,0.00,,,0.00,,2013-03-23 08:41:00,
2013-03-23 01:51:00,48.0,30.0,30.05,NNE,22,2.0,7.0,50,0.00,,,0.00,,2013-03-23 08:51:00,
2013-03-23 02:02:00,48.0,30.0,30.05,NNE,27,4.0,9.0,50,0.00,,,0.00,,2013-03-23 09:02:00,
2013-03-23 02:11:00,48.0,30.0,30.05,NNE,27,4.0,9.0,50,0.00,,,0.00,,2013-03-23 09:11:00,
2013-03-23 02:21:00,48.0,30.0,30.05,NNE,27,4.0,9.0,50,0.00,,,0.00,,2013-03-23 09:21:00,
2013-03-23 02:32:00,46.0,30.0,30.06,NE,39,1.0,4.0,54,0.00,,,0.00,,2013-03-23 09:32:00,
2013-03-23 02:42:00,46.0,30.0,30.06,NE,39,1.0,4.0,54,0.00,,,0.00,,2013-03-23 09:42:00,
2013-03-23 02:53:00,46.0,31.0,30.06,NNW,334,0.0,5.0,55,0.00,,,0.00,,2013-03-23 09:53:00,
2013-03-23 03:02:00,46.0,31.0,30.06,NNE,20,3.0,6.0,55,0.00,,,0.00,,2013-03-23 10:02:00,
2013-03-23 03:12:00,46.0,31.0,30.06,NNE,20,3.0,6.0,55,0.00,,,0.00,,2013-03-23 10:12:00,
2013-03-23 03:22:00,46.0,30.0,30.06,ENE,70,2.0,7.0,54,0.00,,,0.00,,2013-03-23 10:22:00,
2013-03-23 03:33:00,46.0,29.0,30.06,WSW,251,3.0,9.0,52,0.00,,,0.00,,2013-03-23 10:33:00,
2013-03-23 03:42:00,46.0,29.0,30.06,WSW,251,3.0,9.0,52,0.00,,,0.00,,2013-03-23 10:42:00,
2013-03-23 03:52:00,46.0,29.0,30.06,North,11,3.0,7.0,52,0.00,,,0.00,,2013-03-23 10:52:00,
2013-03-23 04:02:00,45.0,29.0,30.06,NE,34,1.0,4.0,53,0.00,,,0.00,,2013-03-23 11:02:00,
2013-03-23 04:11:00,45.0,29.0,30.06,NE,34,1.0,4.0,53,0.00,,,0.00,,2013-03-23 11:11:00,
2013-03-23 04:21:00,45.0,29.0,30.05,NNE,13,0.0,4.0,53,0.00,,,0.00,,2013-03-23 11:21:00,
2013-03-23 04:32:00,45.0,28.0,30.06,ENE,68,2.0,9.0,52,0.00,,,0.00,,2013-03-23 11:32:00,
2013-03-23 04:41:00,45.0,28.0,30.06,ENE,68,2.0,9.0,52,0.00,,,0.00,,2013-03-23 11:41:00,
2013-03-23 04:51:00,45.0,28.0,30.06,NNW,331,3.0,8.0,52,0.00,,,0.00,,2013-03-23 11:51:00,
2013-03-23 05:02:00,45.0,28.0,30.06,NNW,337,3.0,9.0,51,0.00,,,0.00,,2013-03-23 12:02:00,
2013-03-23 05:12:00,45.0,28.0,30.06,NNW,337,3.0,9.0,51,0.00,,,0.00,,2013-03-23 12:12:00,
2013-03-23 05:21:00,45.0,28.0,30.06,NE,34,1.0,6.0,51,0.00,,,0.00,,2013-03-23 12:21:00,
2013-03-23 05:32:00,45.0,28.0,30.07,NNE,12,3.0,10.0,52,0.00,,,0.00,,2013-03-23 12:32:00,
2013-03-23 05:42:00,45.0,28.0,30.07,NNE,12,3.0,10.0,52,0.00,,,0.00,,2013-03-23 12:42:00,
2013-03-23 05:52:00,44.0,28.0,30.07,North,353,0.0,3.0,52,0.00,,,0.00,,2013-03-23 12:52:00,
2013-03-23 06:02:00,44.0,28.0,30.08,North,4,2.0,5.0,53,0.00,,,0.00,,2013-03-23 13:02:00,
2013-03-23 06:11:00,44.0,28.0,30.08,North,4,2.0,5.0,53,0.00,,,0.00,,2013-03-23 13:11:00,
2013-03-23 06:21:00,44.0,28.0,30.08,West,278,1.0,6.0,54,0.00,,,0.00,,2013-03-23 13:21:00,
2013-03-23 06:32:00,43.0,28.0,30.09,NNE,22,1.0,6.0,55,0.00,,,0.00,,2013-03-23 13:32:00,
2013-03-23 06:42:00,43.0,28.0,30.09,NNE,22,1.0,6.0,55,0.00,,,0.00,,2013-03-23 13:42:00,
2013-03-23 06:52:00,43.0,28.0,30.09,North,11,1.0,5.0,55,0.00,,,0.00,,2013-03-23 13:52:00,
2013-03-23 07:02:00,43.0,28.0,30.11,NW,310,0.0,7.0,55,0.00,,,0.00,,2013-03-23 14:02:00,
2013-03-23 07:11:00,43.0,28.0,30.11,NW,310,0.0,7.0,55,0.00,,,0.00,,2013-03-23 14:11:00,
2013-03-23 07:21:00,42.0,28.0,30.10,NE,56,1.0,4.0,57,0.00,,,0.00,,2013-03-23 14:21:00,
2013-03-23 07:32:00,42.0,28.0,30.10,SW,231,0.0,4.0,57,0.00,,,0.00,,2013-03-23 14:32:00,
2013-03-23 07:42:00,42.0,28.0,30.10,SW,231,0.0,4.0,57,0.00,,,0.00,,2013-03-23 14:42:00,
2013-03-23 07:52:00,42.0,28.0,30.10,NNW,328,0.0,4.0,57,0.00,,,0.00,,2013-03-23 14:52:00,
2013-03-23 08:02:00,43.0,28.0,30.10,North,1,1.0,4.0,56,0.00,,,0.00,,2013-03-23 15:02:00,
2013-03-23 08:11:00,43.0,28.0,30.10,North,1,1.0,4.0,56,0.00,,,0.00,,2013-03-23 15:11:00,
2013-03-23 08:22:00,44.0,29.0,30.11,NE,36,1.0,3.0,56,0.00,,,0.00,,2013-03-23 15:22:00,
2013-03-23 08:33:00,44.0,29.0,30.11,NE,36,3.0,4.0,55,0.00,,,0.00,,2013-03-23 15:33:00,
2013-03-23 08:43:00,44.0,29.0,30.11,NE,36,3.0,4.0,55,0.00,,,0.00,,2013-03-23 15:43:00,
2013-03-23 08:52:00,45.0,29.0,30.12,North,356,0.0,4.0,54,0.00,,,0.00,,2013-03-23 15:52:00,
2013-03-23 09:03:00,47.0,30.0,30.13,North,11,1.0,5.0,51,0.00,,,0.00,,2013-03-23 16:03:00,
2013-03-23 09:12:00,47.0,30.0,30.13,North,11,1.0,5.0,51,0.00,,,0.00,,2013-03-23 16:12:00,
2013-03-23 09:22:00,47.0,30.0,30.13,North,11,1.0,5.0,51,0.00,,,0.00,,2013-03-23 16:22:00,
2013-03-23 09:32:00,48.0,29.0,30.13,NW,305,1.0,8.0,48,0.00,,,0.00,,2013-03-23 16:32:00,
2013-03-23 09:42:00,48.0,29.0,30.13,NW,305,1.0,8.0,48,0.00,,,0.00,,2013-03-23 16:42:00,
2013-03-23 09:53:00,49.0,29.0,30.12,NNW,327,3.0,9.0,46,0.00,,,0.00,,2013-03-23 16:53:00,
2013-03-23 10:02:00,51.0,31.0,30.12,NNE,16,1.0,5.0,46,0.00,,,0.00,,2013-03-23 17:02:00,
2013-03-23 10:11:00,52.0,31.0,30.13,ENE,71,0.0,4.0,44,0.00,,,0.00,,2013-03-23 17:11:00,
2013-03-23 10:21:00,52.0,31.0,30.13,ENE,71,0.0,4.0,44,0.00,,,0.00,,2013-03-23 17:21:00,
2013-03-23 10:32:00,52.0,30.0,30.13,North,352,2.0,7.0,43,0.00,,,0.00,,2013-03-23 17:32:00,
2013-03-23 10:42:00,52.0,30.0,30.13,North,352,2.0,7.0,43,0.00,,,0.00,,2013-03-23 17:42:00,
2013-03-23 10:52:00,53.0,31.0,30.13,WNW,297,2.0,9.0,42,0.00,,,0.00,,2013-03-23 17:52:00,
2013-03-23 11:02:00,55.0,32.0,30.13,WNW,293,0.0,6.0,41,0.00,,,0.00,,2013-03-23 18:02:00,
2013-03-23 11:11:00,55.0,32.0,30.13,WNW,293,0.0,6.0,41,0.00,,,0.00,,2013-03-23 18:11:00,
2013-03-23 11:22:00,55.0,30.0,30.12,NNE,13,2.0,7.0,38,0.00,,,0.00,,2013-03-23 18:22:00,
2013-03-23 11:32:00,57.0,30.0,30.12,NW,316,3.0,6.0,36,0.00,,,0.00,,2013-03-23 18:32:00,
2013-03-23 11:42:00,57.0,30.0,30.12,NW,316,3.0,6.0,36,0.00,,,0.00,,2013-03-23 18:42:00,
2013-03-23 11:52:00,59.0,31.0,30.12,West,259,1.0,4.0,35,0.00,,,0.00,,2013-03-23 18:52:00,
2013-03-23 12:02:00,59.0,32.0,30.11,WSW,243,1.0,4.0,36,0.00,,,0.00,,2013-03-23 19:02:00,
2013-03-23 12:12:00,59.0,32.0,30.11,WSW,243,1.0,4.0,36,0.00,,,0.00,,2013-03-23 19:12:00,
2013-03-23 12:22:00,60.0,31.0,30.11,North,4,4.0,6.0,33,0.00,,,0.00,,2013-03-23 19:22:00,
2013-03-23 12:32:00,60.0,31.0,30.10,NW,308,2.0,6.0,33,0.00,,,0.00,,2013-03-23 19:32:00,
2013-03-23 12:42:00,60.0,31.0,30.10,NW,308,2.0,6.0,33,0.00,,,0.00,,2013-03-23 19:42:00,
2013-03-23 12:52:00,62.0,32.0,30.10,NE,51,0.0,5.0,32,0.00,,,0.00,,2013-03-23 19:52:00,
2013-03-23 13:02:00,63.0,33.0,30.09,NNW,330,2.0,6.0,32,0.00,,,0.00,,2013-03-23 20:02:00,
2013-03-23 13:11:00,63.0,33.0,30.09,NNW,330,2.0,6.0,32,0.00,,,0.00,,2013-03-23 20:11:00,
2013-03-23 13:22:00,63.0,32.0,30.09,NW,315,2.0,7.0,31,0.00,,,0.00,,2013-03-23 20:22:00,
2013-03-23 13:32:00,64.0,33.0,30.08,NW,311,1.0,6.0,31,0.00,,,0.00,,2013-03-23 20:32:00,
2013-03-23 13:42:00,64.0,33.0,30.08,NW,311,1.0,6.0,31,0.00,,,0.00,,2013-03-23 20:42:00,
2013-03-23 13:52:00,65.0,34.0,30.08,West,271,1.0,5.0,31,0.00,,,0.00,,2013-03-23 20:52:00,
2013-03-23 14:01:00,65.0,30.0,30.07,NNE,22,3.0,7.0,27,0.00,,,0.00,,2013-03-23 21:01:00,
2013-03-23 14:11:00,65.0,30.0,30.07,NNE,22,3.0,7.0,27,0.00,,,0.00,,2013-03-23 21:11:00,
2013-03-23 14:22:00,66.0,31.0,30.06,NNE,27,1.0,4.0,27,0.00,,,0.00,,2013-03-23 21:22:00,
2013-03-23 14:32:00,67.0,32.0,30.06,WSW,245,1.0,6.0,27,0.00,,,0.00,,2013-03-23 21:32:00,
2013-03-23 14:42:00,67.0,32.0,30.06,WSW,245,1.0,6.0,27,0.00,,,0.00,,2013-03-23 21:42:00,
2013-03-23 14:53:00,67.0,31.0,30.05,NNE,29,3.0,6.0,26,0.00,,,0.00,,2013-03-23 21:53:00,
2013-03-23 15:02:00,68.0,32.0,30.04,North,357,2.0,7.0,26,0.00,,,0.00,,2013-03-23 22:02:00,
2013-03-23 15:12:00,68.0,32.0,30.04,North,357,2.0,7.0,26,0.00,,,0.00,,2013-03-23 22:12:00,
2013-03-23 15:22:00,69.0,31.0,30.04,SW,231,2.0,6.0,24,0.00,,,0.00,,2013-03-23 22:22:00,
2013-03-23 15:32:00,69.0,31.0,30.03,NNW,347,3.0,6.0,24,0.00,,,0.00,,2013-03-23 22:32:00,
2013-03-23 15:42:00,69.0,31.0,30.03,NNW,347,3.0,6.0,24,0.00,,,0.00,,2013-03-23 22:42:00,
2013-03-23 15:53:00,69.0,31.0,30.03,NW,315,1.0,5.0,24,0.00,,,0.00,,2013-03-23 22:53:00,
2013-03-23 16:01:00,69.0,31.0,30.02,ENE,60,1.0,4.0,24,0.00,,,0.00,,2013-03-23 23:01:00,
2013-03-23 16:12:00,69.0,31.0,30.02,ENE,60,1.0,4.0,24,0.00,,,0.00,,2013-03-23 23:12:00,
2013-03-23 16:22:00,69.0,32.0,30.01,WNW,301,1.0,5.0,25,0.00,,,0.00,,2013-03-23 23:22:00,
2013-03-23 16:32:00,69.0,30.0,30.01,East,80,1.0,3.0,23,0.00,,,0.00,,2013-03-23 23:32:00,
2013-03-23 16:42:00,69.0,30.0,30.01,East,80,1.0,3.0,23,0.00,,,0.00,,2013-03-23 23:42:00,
2013-03-23 16:52:00,69.0,31.0,30.01,North,4,3.0,6.0,24,0.00,,,0.00,,2013-03-23 23:52:00,
2013-03-23 17:01:00,69.0,31.0,30.01,North,9,1.0,6.0,24,0.00,,,0.00,,2013-03-24 00:01:00,
2013-03-23 17:11:00,69.0,31.0,30.01,North,9,1.0,6.0,24,0.00,,,0.00,,2013-03-24 00:11:00,
2013-03-23 17:22:00,70.0,30.0,30.01,NW,304,0.0,3.0,23,0.00,,,0.00,,2013-03-24 00:22:00,
2013-03-23 17:32:00,70.0,30.0,30.01,NNE,18,1.0,4.0,23,0.00,,,0.00,,2013-03-24 00:32:00,
2013-03-23 17:41:00,70.0,30.0,30.01,NNE,18,1.0,4.0,23,0.00,,,0.00,,2013-03-24 00:41:00,
2013-03-23 17:52:00,69.0,27.0,30.00,NE,39,2.0,5.0,21,0.00,,,0.00,,2013-03-24 00:52:00,
2013-03-23 18:01:00,70.0,28.0,30.00,SW,225,0.0,3.0,21,0.00,,,0.00,,2013-03-24 01:01:00,
2013-03-23 18:11:00,70.0,28.0,30.00,SW,225,0.0,3.0,21,0.00,,,0.00,,2013-03-24 01:11:00,
2013-03-23 18:22:00,69.0,26.0,30.00,NNW,330,0.0,5.0,20,0.00,,,0.00,,2013-03-24 01:22:00,
2013-03-23 18:32:00,68.0,25.0,30.00,North,8,0.0,2.0,20,0.00,,,0.00,,2013-03-24 01:32:00,
2013-03-23 18:41:00,68.0,25.0,30.00,North,8,0.0,2.0,20,0.00,,,0.00,,2013-03-24 01:41:00,
2013-03-23 18:52:00,67.0,25.0,30.00,NNE,19,0.0,3.0,20,0.00,,,0.00,,2013-03-24 01:52:00,
2013-03-23 19:01:00,67.0,26.0,30.00,NNW,327,0.0,3.0,21,0.00,,,0.00,,2013-03-24 02:01:00,
2013-03-23 19:11:00,67.0,26.0,30.00,NNW,327,0.0,3.0,21,0.00,,,0.00,,2013-03-24 02:11:00,
2013-03-23 19:21:00,66.0,27.0,30.00,North,351,0.0,1.0,23,0.00,,,0.00,,2013-03-24 02:21:00,
2013-03-23 19:32:00,64.0,28.0,30.01,North,351,0.0,-999.0,26,-99.99,,,-99.99,,2013-03-24 02:32:00,
2013-03-23 19:42:00,64.0,28.0,30.01,North,351,0.0,-999.0,26,-99.99,,,-99.99,,2013-03-24 02:42:00,
2013-03-23 19:52:00,61.0,28.0,30.00,North,351,0.0,0.0,28,0.00,,,0.00,,2013-03-24 02:52:00,
2013-03-23 20:01:00,61.0,28.0,30.01,North,352,0.0,0.0,28,0.00,,,0.00,,2013-03-24 03:01:00,
2013-03-23 20:11:00,61.0,28.0,30.01,North,352,0.0,0.0,28,0.00,,,0.00,,2013-03-24 03:11:00,
2013-03-23 20:21:00,60.0,29.0,30.01,North,1,0.0,0.0,31,0.00,,,0.00,,2013-03-24 03:21:00,
2013-03-23 20:32:00,59.0,31.0,30.01,North,1,0.0,0.0,34,0.00,,,0.00,,2013-03-24 03:32:00,
2013-03-23 20:42:00,59.0,31.0,30.01,North,1,0.0,0.0,34,0.00,,,0.00,,2013-03-24 03:42:00,
2013-03-23 20:53:00,60.0,32.0,30.02,SE,127,0.0,1.0,35,0.00,,,0.00,,2013-03-24 03:53:00,
2013-03-23 21:02:00,60.0,32.0,30.02,SE,127,0.0,1.0,35,0.00,,,0.00,,2013-03-24 04:02:00,
2013-03-23 21:12:00,60.0,32.0,30.02,SE,127,0.0,1.0,35,0.00,,,0.00,,2013-03-24 04:12:00,
2013-03-23 21:22:00,57.0,33.0,30.03,SE,127,0.0,0.0,40,0.00,,,0.00,,2013-03-24 04:22:00,
2013-03-23 21:32:00,56.0,34.0,30.03,SE,127,0.0,0.0,43,0.00,,,0.00,,2013-03-24 04:32:00,
2013-03-23 21:43:00,56.0,34.0,30.03,SE,127,0.0,0.0,43,0.00,,,0.00,,2013-03-24 04:43:00,
2013-03-23 21:52:00,55.0,34.0,30.04,SE,127,0.0,0.0,45,0.00,,,0.00,,2013-03-24 04:52:00,
2013-03-23 22:02:00,54.0,36.0,30.04,SE,127,0.0,0.0,50,0.00,,,0.00,,2013-03-24 05:02:00,
2013-03-23 22:12:00,54.0,36.0,30.04,SE,127,0.0,0.0,50,0.00,,,0.00,,2013-03-24 05:12:00,
2013-03-23 22:22:00,53.0,36.0,30.04,SE,127,0.0,0.0,52,0.00,,,0.00,,2013-03-24 05:22:00,
2013-03-23 22:32:00,53.0,39.0,30.03,SE,127,0.0,1.0,58,0.00,,,0.00,,2013-03-24 05:32:00,
2013-03-23 22:41:00,53.0,39.0,30.03,SE,127,0.0,1.0,58,0.00,,,0.00,,2013-03-24 05:41:00,
2013-03-23 22:52:00,53.0,38.0,30.03,SE,127,0.0,0.0,57,0.00,,,0.00,,2013-03-24 05:52:00,
2013-03-23 23:01:00,52.0,37.0,30.04,SE,127,0.0,0.0,57,0.00,,,0.00,,2013-03-24 06:01:00,
2013-03-23 23:11:00,52.0,37.0,30.04,SE,127,0.0,0.0,57,0.00,,,0.00,,2013-03-24 06:11:00,
2013-03-23 23:21:00,52.0,39.0,30.04,SE,127,0.0,0.0,60,0.00,,,0.00,,2013-03-24 06:21:00,
2013-03-23 23:32:00,51.0,40.0,30.05,SE,127,0.0,1.0,66,0.00,,,0.00,,2013-03-24 06:32:00,
2013-03-23 23:42:00,51.0,40.0,30.05,SE,127,0.0,1.0,66,0.00,,,0.00,,2013-03-24 06:42:00,
2013-03-23 23:52:00,51.0,40.0,30.04,SE,139,1.0,2.0,65,0.00,,,0.00,,2013-03-24 06:52:00,